Time,TemperatureF,DewpointF,PressureIn,WindDirection,WindDirectionDegrees,WindSpeedMPH,WindSpeedGustMPH,Humidity,HourlyPrecipIn,Conditions,Clouds,dailyrainin,SoftwareType,DateUTC
2015-04-18 00:02:00,68.3,66.5,30.18,North,359,0.0,2.0,94,0.00,,,0.00,WeatherCatV2.02B30,2015-04-17 14:02:00,
2015-04-18 00:07:00,68.1,66.3,30.18,NNW,341,0.0,1.0,94,0.00,,,0.00,WeatherCatV2.02B30,2015-04-17 14:07:00,
2015-04-18 00:12:00,68.0,66.2,30.18,South,173,0.0,0.0,94,0.00,,,0.01,WeatherCatV2.02B30,2015-04-17 14:12:00,
2015-04-18 00:17:00,67.9,66.1,30.17,South,177,0.0,1.0,94,0.00,,,0.01,WeatherCatV2.02B30,2015-04-17 14:17:00,
2015-04-18 00:22:00,67.8,66.0,30.17,North,3,0.0,0.0,94,0.00,,,0.01,WeatherCatV2.02B30,2015-04-17 14:22:00,
2015-04-18 00:27:00,67.7,66.2,30.17,NNW,341,0.0,0.0,95,0.00,,,0.01,WeatherCatV2.02B30,2015-04-17 14:27:00,
2015-04-18 00:32:00,67.7,66.2,30.17,NNW,336,0.0,1.0,95,0.00,,,0.01,WeatherCatV2.02B30,2015-04-17 14:32:00,
2015-04-18 00:37:00,67.7,66.2,30.17,NNW,334,0.0,1.0,95,0.00,,,0.01,WeatherCatV2.02B30,2015-04-17 14:37:00,
2015-04-18 00:42:00,67.7,66.2,30.16,NNW,333,0.0,0.0,95,0.00,,,0.01,WeatherCatV2.02B30,2015-04-17 14:42:00,
2015-04-18 00:47:00,67.7,66.2,30.17,NNW,333,0.0,0.0,95,0.00,,,0.01,WeatherCatV2.02B30,2015-04-17 14:47:00,
2015-04-18 00:52:00,67.7,66.2,30.17,NNW,333,0.0,0.0,95,0.00,,,0.01,WeatherCatV2.02B30,2015-04-17 14:52:00,
2015-04-18 00:57:00,67.7,66.2,30.16,NNW,333,0.0,0.0,95,0.00,,,0.01,WeatherCatV2.02B30,2015-04-17 14:57:00,
2015-04-18 01:02:00,67.6,65.8,30.16,NNW,333,0.0,0.0,94,0.00,,,0.01,WeatherCatV2.02B30,2015-04-17 15:02:00,
2015-04-18 01:08:00,67.7,65.9,30.16,NNW,334,0.0,0.0,94,0.00,,,0.01,WeatherCatV2.02B30,2015-04-17 15:08:00,
2015-04-18 01:13:00,67.7,65.9,30.16,NNW,333,0.0,0.0,94,0.00,,,0.01,WeatherCatV2.02B30,2015-04-17 15:13:00,
2015-04-18 01:18:00,67.8,66.0,30.16,NNW,334,0.0,0.0,94,0.00,,,0.01,WeatherCatV2.02B30,2015-04-17 15:18:00,
2015-04-18 01:23:00,67.9,66.4,30.16,NNW,333,0.0,0.0,95,0.00,,,0.01,WeatherCatV2.02B30,2015-04-17 15:23:00,
2015-04-18 01:28:00,67.9,66.4,30.16,NNW,334,0.0,0.0,95,0.00,,,0.01,WeatherCatV2.02B30,2015-04-17 15:28:00,
2015-04-18 01:33:00,67.9,66.4,30.16,NNW,333,0.0,0.0,95,0.00,,,0.01,WeatherCatV2.02B30,2015-04-17 15:33:00,
2015-04-18 01:38:00,67.9,66.4,30.16,NNW,334,0.0,1.0,95,0.00,,,0.01,WeatherCatV2.02B30,2015-04-17 15:38:00,
2015-04-18 01:43:00,68.0,66.5,30.15,NNW,334,0.0,0.0,95,0.00,,,0.01,WeatherCatV2.02B30,2015-04-17 15:43:00,
2015-04-18 01:48:00,67.9,66.4,30.16,NNW,334,0.0,1.0,95,0.00,,,0.01,WeatherCatV2.02B30,2015-04-17 15:48:00,
2015-04-18 01:53:00,67.8,66.3,30.16,NNW,334,0.0,0.0,95,0.00,,,0.01,WeatherCatV2.02B30,2015-04-17 15:53:00,
2015-04-18 01:58:00,67.7,65.9,30.15,NNW,333,0.0,1.0,94,0.00,,,0.01,WeatherCatV2.02B30,2015-04-17 15:58:00,
2015-04-18 02:03:00,67.7,65.9,30.15,NNW,333,0.0,0.0,94,0.00,,,0.01,WeatherCatV2.02B30,2015-04-17 16:03:00,
2015-04-18 02:08:00,67.5,65.7,30.15,NNW,333,0.0,0.0,94,0.00,,,0.01,WeatherCatV2.02B30,2015-04-17 16:08:00,
2015-04-18 02:13:00,67.3,65.5,30.15,NNW,334,0.0,0.0,94,0.00,,,0.01,WeatherCatV2.02B30,2015-04-17 16:13:00,
2015-04-18 02:18:00,67.0,65.5,30.15,NNW,334,1.0,1.0,95,0.00,,,0.01,WeatherCatV2.02B30,2015-04-17 16:18:00,
2015-04-18 02:23:00,66.9,65.4,30.15,NNW,333,0.0,0.0,95,0.00,,,0.01,WeatherCatV2.02B30,2015-04-17 16:23:00,
2015-04-18 02:28:00,66.9,65.4,30.14,NNW,334,0.0,0.0,95,0.00,,,0.01,WeatherCatV2.02B30,2015-04-17 16:28:00,
2015-04-18 02:33:00,66.9,65.4,30.14,NNW,334,0.0,0.0,95,0.00,,,0.01,WeatherCatV2.02B30,2015-04-17 16:33:00,
2015-04-18 02:38:00,66.9,65.7,30.14,NNW,334,0.0,1.0,96,0.00,,,0.01,WeatherCatV2.02B30,2015-04-17 16:38:00,
2015-04-18 02:43:00,66.9,65.7,30.14,NNW,334,1.0,1.0,96,0.00,,,0.01,WeatherCatV2.02B30,2015-04-17 16:43:00,
2015-04-18 02:48:00,67.0,65.8,30.14,NNW,334,0.0,1.0,96,0.00,,,0.01,WeatherCatV2.02B30,2015-04-17 16:48:00,
2015-04-18 02:53:00,66.9,65.7,30.14,NNW,334,0.0,0.0,96,0.00,,,0.01,WeatherCatV2.02B30,2015-04-17 16:53:00,
2015-04-18 02:58:00,66.9,65.7,30.14,NNW,334,0.0,1.0,96,0.00,,,0.01,WeatherCatV2.02B30,2015-04-17 16:58:00,
2015-04-18 03:03:00,67.1,65.9,30.14,NNW,334,0.0,0.0,96,0.00,,,0.01,WeatherCatV2.02B30,2015-04-17 17:03:00,
2015-04-18 03:08:00,67.1,65.9,30.14,NNW,333,0.0,1.0,96,0.00,,,0.01,WeatherCatV2.02B30,2015-04-17 17:08:00,
2015-04-18 03:13:00,67.1,65.9,30.14,NNW,329,0.0,1.0,96,0.00,,,0.01,WeatherCatV2.02B30,2015-04-17 17:13:00,
2015-04-18 03:18:00,67.1,65.9,30.14,NW,317,0.0,0.0,96,0.00,,,0.01,WeatherCatV2.02B30,2015-04-17 17:18:00,
2015-04-18 03:23:00,67.0,65.8,30.14,NW,317,0.0,0.0,96,0.00,,,0.01,WeatherCatV2.02B30,2015-04-17 17:23:00,
2015-04-18 03:28:00,66.9,65.7,30.13,NW,319,1.0,1.0,96,0.00,,,0.01,WeatherCatV2.02B30,2015-04-17 17:28:00,
2015-04-18 03:33:00,66.8,65.6,30.13,NW,326,0.0,1.0,96,0.00,,,0.02,WeatherCatV2.02B30,2015-04-17 17:33:00,
2015-04-18 03:38:00,66.6,65.4,30.14,NW,326,0.0,0.0,96,0.00,,,0.02,WeatherCatV2.02B30,2015-04-17 17:38:00,
2015-04-18 03:43:00,66.5,65.3,30.14,NW,326,0.0,0.0,96,0.00,,,0.02,WeatherCatV2.02B30,2015-04-17 17:43:00,
2015-04-18 03:53:00,66.1,64.9,30.14,NNW,327,0.0,0.0,96,0.00,,,0.02,WeatherCatV2.02B30,2015-04-17 17:53:00,
2015-04-18 03:58:00,66.2,65.0,30.14,NW,326,0.0,1.0,96,0.00,,,0.02,WeatherCatV2.02B30,2015-04-17 17:58:00,
2015-04-18 04:03:00,66.3,65.1,30.14,NW,326,0.0,0.0,96,0.00,,,0.02,WeatherCatV2.02B30,2015-04-17 18:03:00,
2015-04-18 04:08:00,66.3,65.1,30.14,NW,326,0.0,0.0,96,0.00,,,0.02,WeatherCatV2.02B30,2015-04-17 18:08:00,
2015-04-18 04:13:00,66.3,65.1,30.14,NW,326,0.0,0.0,96,0.00,,,0.02,WeatherCatV2.02B30,2015-04-17 18:13:00,
2015-04-18 04:18:00,66.4,65.5,30.14,NW,324,0.0,1.0,97,0.00,,,0.02,WeatherCatV2.02B30,2015-04-17 18:18:00,
2015-04-18 04:23:00,66.6,65.7,30.14,NW,323,0.0,1.0,97,0.00,,,0.02,WeatherCatV2.02B30,2015-04-17 18:23:00,
2015-04-18 04:28:00,66.6,65.4,30.14,WNW,288,1.0,2.0,96,0.00,,,0.02,WeatherCatV2.02B30,2015-04-17 18:28:00,
2015-04-18 04:33:00,66.6,65.4,30.14,WNW,302,1.0,1.0,96,0.00,,,0.02,WeatherCatV2.02B30,2015-04-17 18:33:00,
2015-04-18 04:38:00,66.6,65.4,30.14,NW,306,0.0,1.0,96,0.00,,,0.02,WeatherCatV2.02B30,2015-04-17 18:38:00,
2015-04-18 04:43:00,66.4,65.2,30.14,NW,306,0.0,0.0,96,0.00,,,0.02,WeatherCatV2.02B30,2015-04-17 18:43:00,
2015-04-18 04:48:00,66.2,65.0,30.14,NW,309,0.0,0.0,96,0.00,,,0.02,WeatherCatV2.02B30,2015-04-17 18:48:00,
2015-04-18 04:53:00,66.2,65.0,30.14,NW,323,0.0,1.0,96,0.00,,,0.02,WeatherCatV2.02B30,2015-04-17 18:53:00,
2015-04-18 04:58:00,66.1,64.9,30.14,NW,314,0.0,2.0,96,0.00,,,0.02,WeatherCatV2.02B30,2015-04-17 18:58:00,
2015-04-18 05:03:00,65.9,64.7,30.14,WNW,297,0.0,0.0,96,0.00,,,0.02,WeatherCatV2.02B30,2015-04-17 19:03:00,
2015-04-18 05:08:00,65.9,64.7,30.14,NW,308,0.0,1.0,96,0.00,,,0.02,WeatherCatV2.02B30,2015-04-17 19:08:00,
2015-04-18 05:13:00,65.8,64.6,30.14,NW,306,0.0,2.0,96,0.00,,,0.02,WeatherCatV2.02B30,2015-04-17 19:13:00,
2015-04-18 05:18:00,65.7,64.5,30.14,NW,308,0.0,0.0,96,0.00,,,0.02,WeatherCatV2.02B30,2015-04-17 19:18:00,
2015-04-18 05:23:00,65.6,64.4,30.14,NW,307,0.0,0.0,96,0.00,,,0.02,WeatherCatV2.02B30,2015-04-17 19:23:00,
2015-04-18 05:28:00,65.6,64.4,30.14,NW,307,0.0,0.0,96,0.00,,,0.02,WeatherCatV2.02B30,2015-04-17 19:28:00,
2015-04-18 05:33:00,65.5,64.3,30.14,NW,310,0.0,0.0,96,0.00,,,0.02,WeatherCatV2.02B30,2015-04-17 19:33:00,
2015-04-18 05:38:00,65.4,64.2,30.14,NW,309,0.0,0.0,96,0.00,,,0.02,WeatherCatV2.02B30,2015-04-17 19:38:00,
2015-04-18 05:43:00,65.5,64.6,30.14,NW,309,0.0,1.0,97,0.00,,,0.02,WeatherCatV2.02B30,2015-04-17 19:43:00,
2015-04-18 05:48:00,65.5,64.6,30.14,NW,310,0.0,0.0,97,0.00,,,0.02,WeatherCatV2.02B30,2015-04-17 19:48:00,
2015-04-18 05:53:00,65.4,64.5,30.14,NW,309,0.0,0.0,97,0.00,,,0.02,WeatherCatV2.02B30,2015-04-17 19:53:00,
2015-04-18 05:58:00,65.2,64.0,30.14,NW,310,0.0,0.0,96,0.00,,,0.02,WeatherCatV2.02B30,2015-04-17 19:58:00,
2015-04-18 06:03:00,65.1,64.2,30.14,NW,311,0.0,0.0,97,0.00,,,0.02,WeatherCatV2.02B30,2015-04-17 20:03:00,
2015-04-18 06:08:00,65.0,64.1,30.14,NW,311,0.0,1.0,97,0.00,,,0.02,WeatherCatV2.02B30,2015-04-17 20:08:00,
2015-04-18 06:13:00,65.0,64.1,30.15,NW,311,1.0,1.0,97,0.00,,,0.02,WeatherCatV2.02B30,2015-04-17 20:13:00,
2015-04-18 06:18:00,64.9,64.0,30.15,NW,310,0.0,1.0,97,0.00,,,0.02,WeatherCatV2.02B30,2015-04-17 20:18:00,
2015-04-18 06:23:00,64.9,64.0,30.15,NW,311,0.0,0.0,97,0.00,,,0.02,WeatherCatV2.02B30,2015-04-17 20:23:00,
2015-04-18 06:28:00,64.8,63.9,30.15,NW,310,0.0,0.0,97,0.00,,,0.02,WeatherCatV2.02B30,2015-04-17 20:28:00,
2015-04-18 06:33:00,64.7,63.5,30.15,NW,311,0.0,0.0,96,0.00,,,0.02,WeatherCatV2.02B30,2015-04-17 20:33:00,
2015-04-18 06:38:00,64.7,63.8,30.15,NW,310,0.0,1.0,97,0.00,,,0.02,WeatherCatV2.02B30,2015-04-17 20:38:00,
2015-04-18 06:43:00,64.7,63.8,30.16,NW,311,0.0,0.0,97,0.00,,,0.02,WeatherCatV2.02B30,2015-04-17 20:43:00,
2015-04-18 06:48:00,64.7,63.8,30.16,NW,310,0.0,0.0,97,0.00,,,0.02,WeatherCatV2.02B30,2015-04-17 20:48:00,
2015-04-18 06:53:00,64.9,64.0,30.16,NW,311,1.0,1.0,97,0.00,,,0.02,WeatherCatV2.02B30,2015-04-17 20:53:00,
2015-04-18 06:58:00,64.9,64.0,30.16,NW,311,0.0,0.0,97,0.00,,,0.02,WeatherCatV2.02B30,2015-04-17 20:58:00,
2015-04-18 07:03:00,65.0,64.1,30.16,NW,318,0.0,0.0,97,0.00,,,0.02,WeatherCatV2.02B30,2015-04-17 21:03:00,
2015-04-18 07:08:00,65.0,64.1,30.16,NW,326,0.0,0.0,97,0.00,,,0.02,WeatherCatV2.02B30,2015-04-17 21:08:00,
2015-04-18 07:14:00,65.1,64.2,30.17,NW,326,0.0,1.0,97,0.00,,,0.02,WeatherCatV2.02B30,2015-04-17 21:14:00,
2015-04-18 07:19:00,65.3,64.4,30.17,NNW,331,0.0,2.0,97,0.00,,,0.02,WeatherCatV2.02B30,2015-04-17 21:19:00,
2015-04-18 07:24:00,65.5,64.6,30.17,NNW,334,0.0,0.0,97,0.00,,,0.02,WeatherCatV2.02B30,2015-04-17 21:24:00,
2015-04-18 07:29:00,65.8,64.9,30.17,NNW,337,0.0,1.0,97,0.00,,,0.02,WeatherCatV2.02B30,2015-04-17 21:29:00,
2015-04-18 07:34:00,66.0,65.1,30.18,North,349,0.0,1.0,97,0.00,,,0.02,WeatherCatV2.02B30,2015-04-17 21:34:00,
2015-04-18 07:39:00,66.1,65.2,30.18,NNW,347,1.0,3.0,97,0.00,,,0.02,WeatherCatV2.02B30,2015-04-17 21:39:00,
2015-04-18 07:44:00,66.2,65.0,30.18,North,350,1.0,2.0,96,0.00,,,0.02,WeatherCatV2.02B30,2015-04-17 21:44:00,
2015-04-18 07:49:00,66.4,65.2,30.18,NNW,336,0.0,2.0,96,0.00,,,0.02,WeatherCatV2.02B30,2015-04-17 21:49:00,
2015-04-18 07:54:00,66.7,65.5,30.18,WNW,293,1.0,2.0,96,0.00,,,0.02,WeatherCatV2.02B30,2015-04-17 21:54:00,
2015-04-18 07:59:00,67.1,65.6,30.18,WNW,294,2.0,3.0,95,0.00,,,0.02,WeatherCatV2.02B30,2015-04-17 21:59:00,
2015-04-18 08:04:00,67.4,65.6,30.18,WNW,301,1.0,1.0,94,0.00,,,0.02,WeatherCatV2.02B30,2015-04-17 22:04:00,
2015-04-18 08:14:00,68.3,66.2,30.18,NW,312,0.0,3.0,93,0.00,,,0.02,WeatherCatV2.02B30,2015-04-17 22:14:00,
2015-04-18 08:19:00,68.5,66.1,30.19,NNW,330,0.0,1.0,92,0.00,,,0.02,WeatherCatV2.02B30,2015-04-17 22:19:00,
2015-04-18 08:24:00,68.8,66.4,30.19,NNW,343,0.0,1.0,92,0.00,,,0.02,WeatherCatV2.02B30,2015-04-17 22:24:00,
2015-04-18 08:29:00,69.2,66.8,30.19,NNW,345,0.0,1.0,92,0.00,,,0.02,WeatherCatV2.02B30,2015-04-17 22:29:00,
2015-04-18 08:34:00,69.5,67.1,30.19,NNW,337,0.0,1.0,92,0.00,,,0.02,WeatherCatV2.02B30,2015-04-17 22:34:00,
2015-04-18 08:39:00,70.1,67.3,30.19,North,354,0.0,2.0,91,0.00,,,0.02,WeatherCatV2.02B30,2015-04-17 22:39:00,
2015-04-18 08:44:00,70.6,67.5,30.19,NNW,340,0.0,1.0,90,0.00,,,0.02,WeatherCatV2.02B30,2015-04-17 22:44:00,
2015-04-18 08:49:00,70.8,67.4,30.19,NW,308,0.0,1.0,89,0.00,,,0.02,WeatherCatV2.02B30,2015-04-17 22:49:00,
2015-04-18 08:54:00,71.3,67.9,30.19,NW,323,0.0,2.0,89,0.00,,,0.02,WeatherCatV2.02B30,2015-04-17 22:54:00,
2015-04-18 08:59:00,71.8,68.4,30.19,NW,326,0.0,1.0,89,0.00,,,0.02,WeatherCatV2.02B30,2015-04-17 22:59:00,
2015-04-18 09:04:00,72.6,68.2,30.19,NNW,344,2.0,3.0,86,0.00,,,0.02,WeatherCatV2.02B30,2015-04-17 23:04:00,
2015-04-18 09:09:00,73.2,68.8,30.19,NNW,336,0.0,0.0,86,0.00,,,0.02,WeatherCatV2.02B30,2015-04-17 23:09:00,
2015-04-18 09:14:00,73.6,68.4,30.19,NW,304,0.0,2.0,84,0.00,,,0.02,WeatherCatV2.02B30,2015-04-17 23:14:00,
2015-04-18 09:19:00,73.4,68.6,30.19,NW,323,0.0,1.0,85,0.00,,,0.02,WeatherCatV2.02B30,2015-04-17 23:19:00,
2015-04-18 09:24:00,73.9,69.4,30.19,North,350,1.0,1.0,86,0.00,,,0.02,WeatherCatV2.02B30,2015-04-17 23:24:00,
2015-04-18 09:29:00,74.5,69.7,30.19,NW,319,2.0,2.0,85,0.00,,,0.02,WeatherCatV2.02B30,2015-04-17 23:29:00,
2015-04-18 09:34:00,75.0,69.8,30.18,NNW,341,0.0,1.0,84,0.00,,,0.02,WeatherCatV2.02B30,2015-04-17 23:34:00,
2015-04-18 09:39:00,75.5,68.9,30.18,NNW,331,0.0,2.0,80,0.00,,,0.02,WeatherCatV2.02B30,2015-04-17 23:39:00,
2015-04-18 09:44:00,76.0,70.4,30.18,NNW,338,0.0,1.0,83,0.00,,,0.02,WeatherCatV2.02B30,2015-04-17 23:44:00,
2015-04-18 09:49:00,76.5,70.2,30.18,NW,323,0.0,2.0,81,0.00,,,0.02,WeatherCatV2.02B30,2015-04-17 23:49:00,
2015-04-18 09:54:00,77.0,70.0,30.18,North,11,0.0,1.0,79,0.00,,,0.02,WeatherCatV2.02B30,2015-04-17 23:54:00,
2015-04-18 09:59:00,77.6,70.2,30.18,North,9,0.0,1.0,78,0.00,,,0.02,WeatherCatV2.02B30,2015-04-17 23:59:00,
2015-04-18 10:04:00,78.4,70.6,30.18,North,352,0.0,2.0,77,0.00,,,0.02,WeatherCatV2.02B30,2015-04-18 00:04:00,
2015-04-18 10:09:00,79.1,70.1,30.18,North,357,0.0,2.0,74,0.00,,,0.02,WeatherCatV2.02B30,2015-04-18 00:09:00,
2015-04-18 10:14:00,79.6,69.8,30.17,North,352,0.0,2.0,72,0.00,,,0.02,WeatherCatV2.02B30,2015-04-18 00:14:00,
2015-04-18 10:19:00,79.7,69.8,30.17,North,7,1.0,1.0,72,0.00,,,0.02,WeatherCatV2.02B30,2015-04-18 00:19:00,
2015-04-18 10:24:00,79.9,69.6,30.17,NNE,22,0.0,1.0,71,0.00,,,0.02,WeatherCatV2.02B30,2015-04-18 00:24:00,
2015-04-18 10:29:00,80.6,70.7,30.17,North,6,0.0,0.0,72,0.00,,,0.02,WeatherCatV2.02B30,2015-04-18 00:29:00,
2015-04-18 10:34:00,81.4,70.7,30.17,ESE,111,2.0,2.0,70,0.00,,,0.02,WeatherCatV2.02B30,2015-04-18 00:34:00,
2015-04-18 10:39:00,81.1,69.9,30.16,North,354,1.0,2.0,69,0.00,,,0.02,WeatherCatV2.02B30,2015-04-18 00:39:00,
2015-04-18 10:44:00,81.1,70.8,30.16,NNW,347,0.0,1.0,71,0.00,,,0.02,WeatherCatV2.02B30,2015-04-18 00:44:00,
2015-04-18 10:49:00,81.7,69.7,30.16,NNW,337,0.0,2.0,67,0.00,,,0.02,WeatherCatV2.02B30,2015-04-18 00:49:00,
2015-04-18 10:54:00,82.1,70.0,30.15,North,358,0.0,3.0,67,0.00,,,0.02,WeatherCatV2.02B30,2015-04-18 00:54:00,
2015-04-18 10:59:00,81.4,68.9,30.15,North,350,0.0,3.0,66,0.00,,,0.02,WeatherCatV2.02B30,2015-04-18 00:59:00,
2015-04-18 11:04:00,80.2,68.2,30.15,NNW,340,2.0,4.0,67,0.00,,,0.02,WeatherCatV2.02B30,2015-04-18 01:04:00,
2015-04-18 11:14:00,79.4,69.2,30.15,North,1,0.0,4.0,71,0.00,,,0.02,WeatherCatV2.02B30,2015-04-18 01:14:00,
2015-04-18 11:19:00,79.0,67.9,30.14,ESE,119,2.0,2.0,69,0.00,,,0.02,WeatherCatV2.02B30,2015-04-18 01:19:00,
2015-04-18 11:24:00,79.3,68.2,30.14,NW,314,1.0,3.0,69,0.00,,,0.02,WeatherCatV2.02B30,2015-04-18 01:24:00,
2015-04-18 11:29:00,80.1,69.0,30.14,NW,314,1.0,2.0,69,0.00,,,0.02,WeatherCatV2.02B30,2015-04-18 01:29:00,
2015-04-18 11:34:00,80.5,68.5,30.14,NNW,341,0.0,2.0,67,0.00,,,0.02,WeatherCatV2.02B30,2015-04-18 01:34:00,
2015-04-18 11:39:00,80.2,68.7,30.14,NNW,331,0.0,1.0,68,0.00,,,0.02,WeatherCatV2.02B30,2015-04-18 01:39:00,
2015-04-18 11:44:00,80.6,69.9,30.14,North,9,0.0,2.0,70,0.00,,,0.02,WeatherCatV2.02B30,2015-04-18 01:44:00,
2015-04-18 11:49:00,82.1,70.5,30.13,NE,46,1.0,1.0,68,0.00,,,0.02,WeatherCatV2.02B30,2015-04-18 01:49:00,
2015-04-18 11:54:00,82.5,69.1,30.13,NNW,336,2.0,4.0,64,0.00,,,0.02,WeatherCatV2.02B30,2015-04-18 01:54:00,
2015-04-18 11:59:00,83.0,70.0,30.12,North,354,1.0,2.0,65,0.00,,,0.02,WeatherCatV2.02B30,2015-04-18 01:59:00,
2015-04-18 12:04:00,83.0,69.5,30.12,North,354,2.0,5.0,64,0.00,,,0.02,WeatherCatV2.02B30,2015-04-18 02:04:00,
2015-04-18 12:09:00,82.5,69.5,30.12,North,351,1.0,3.0,65,0.00,,,0.02,WeatherCatV2.02B30,2015-04-18 02:09:00,
2015-04-18 12:14:00,81.7,68.3,30.12,SSE,158,1.0,3.0,64,0.00,,,0.02,WeatherCatV2.02B30,2015-04-18 02:14:00,
2015-04-18 12:19:00,81.3,69.7,30.11,NNW,348,2.0,2.0,68,0.00,,,0.02,WeatherCatV2.02B30,2015-04-18 02:19:00,
2015-04-18 12:24:00,81.9,68.9,30.11,NNW,343,2.0,3.0,65,0.00,,,0.02,WeatherCatV2.02B30,2015-04-18 02:24:00,
2015-04-18 12:29:00,81.9,68.9,30.11,East,89,1.0,2.0,65,0.00,,,0.02,WeatherCatV2.02B30,2015-04-18 02:29:00,
2015-04-18 12:34:00,81.4,68.5,30.10,WNW,297,1.0,4.0,65,0.00,,,0.02,WeatherCatV2.02B30,2015-04-18 02:34:00,
2015-04-18 12:39:00,80.2,68.7,30.10,North,2,0.0,2.0,68,0.00,,,0.02,WeatherCatV2.02B30,2015-04-18 02:39:00,
2015-04-18 12:44:00,79.7,68.2,30.10,North,10,1.0,2.0,68,0.00,,,0.02,WeatherCatV2.02B30,2015-04-18 02:44:00,
2015-04-18 12:49:00,80.4,69.3,30.10,North,352,1.0,3.0,69,0.00,,,0.02,WeatherCatV2.02B30,2015-04-18 02:49:00,
2015-04-18 12:54:00,81.8,70.2,30.09,NNW,347,2.0,2.0,68,0.00,,,0.02,WeatherCatV2.02B30,2015-04-18 02:54:00,
2015-04-18 12:59:00,82.6,69.6,30.09,SE,144,3.0,3.0,65,0.00,,,0.02,WeatherCatV2.02B30,2015-04-18 02:59:00,
2015-04-18 13:04:00,81.8,68.9,30.09,North,349,0.0,1.0,65,0.00,,,0.02,WeatherCatV2.02B30,2015-04-18 03:04:00,
2015-04-18 13:09:00,81.0,68.5,30.09,NNW,347,2.0,2.0,66,0.00,,,0.02,WeatherCatV2.02B30,2015-04-18 03:09:00,
2015-04-18 13:14:00,80.5,68.9,30.08,NNW,348,2.0,3.0,68,0.00,,,0.02,WeatherCatV2.02B30,2015-04-18 03:14:00,
2015-04-18 13:19:00,80.0,68.9,30.08,SSE,162,0.0,1.0,69,0.00,,,0.02,WeatherCatV2.02B30,2015-04-18 03:19:00,
2015-04-18 13:24:00,79.6,68.5,30.08,NNW,344,2.0,4.0,69,0.00,,,0.02,WeatherCatV2.02B30,2015-04-18 03:24:00,
2015-04-18 13:30:00,79.0,68.4,30.08,North,352,1.0,1.0,70,0.00,,,0.02,WeatherCatV2.02B30,2015-04-18 03:30:00,
2015-04-18 13:35:00,79.0,68.4,30.08,North,356,1.0,4.0,70,0.00,,,0.02,WeatherCatV2.02B30,2015-04-18 03:35:00,
2015-04-18 13:40:00,79.2,68.6,30.08,South,187,1.0,4.0,70,0.00,,,0.02,WeatherCatV2.02B30,2015-04-18 03:40:00,
2015-04-18 13:45:00,78.8,68.6,30.08,NW,316,1.0,3.0,71,0.00,,,0.02,WeatherCatV2.02B30,2015-04-18 03:45:00,
2015-04-18 13:50:00,78.3,68.5,30.08,NNW,337,2.0,3.0,72,0.00,,,0.02,WeatherCatV2.02B30,2015-04-18 03:50:00,
2015-04-18 13:55:00,78.4,69.4,30.07,NNE,18,0.0,1.0,74,0.00,,,0.02,WeatherCatV2.02B30,2015-04-18 03:55:00,
2015-04-18 14:00:00,78.3,68.1,30.07,NNE,17,0.0,5.0,71,0.00,,,0.02,WeatherCatV2.02B30,2015-04-18 04:00:00,
2015-04-18 14:05:00,78.8,68.6,30.07,NNW,329,0.0,2.0,71,0.00,,,0.02,WeatherCatV2.02B30,2015-04-18 04:05:00,
2015-04-18 14:10:00,79.4,68.7,30.07,North,359,0.0,2.0,70,0.00,,,0.02,WeatherCatV2.02B30,2015-04-18 04:10:00,
2015-04-18 14:15:00,80.1,69.0,30.07,NW,322,1.0,3.0,69,0.00,,,0.02,WeatherCatV2.02B30,2015-04-18 04:15:00,
2015-04-18 14:20:00,80.6,69.5,30.07,NNE,14,1.0,3.0,69,0.00,,,0.02,WeatherCatV2.02B30,2015-04-18 04:20:00,
2015-04-18 14:25:00,80.7,68.7,30.07,NNW,348,0.0,5.0,67,0.00,,,0.02,WeatherCatV2.02B30,2015-04-18 04:25:00,
2015-04-18 14:30:00,80.6,69.0,30.07,North,356,1.0,3.0,68,0.00,,,0.02,WeatherCatV2.02B30,2015-04-18 04:30:00,
2015-04-18 14:35:00,80.1,69.0,30.07,North,357,0.0,2.0,69,0.00,,,0.02,WeatherCatV2.02B30,2015-04-18 04:35:00,
2015-04-18 14:40:00,79.2,68.6,30.07,South,176,2.0,3.0,70,0.00,,,0.02,WeatherCatV2.02B30,2015-04-18 04:40:00,
2015-04-18 14:45:00,79.2,69.0,30.07,North,7,1.0,3.0,71,0.00,,,0.02,WeatherCatV2.02B30,2015-04-18 04:45:00,
2015-04-18 14:50:00,79.4,69.2,30.06,NNW,333,1.0,1.0,71,0.00,,,0.02,WeatherCatV2.02B30,2015-04-18 04:50:00,
2015-04-18 14:55:00,79.6,68.9,30.06,NW,323,1.0,2.0,70,0.00,,,0.02,WeatherCatV2.02B30,2015-04-18 04:55:00,
2015-04-18 15:05:00,79.5,69.2,30.06,East,80,1.0,3.0,71,0.00,,,0.02,WeatherCatV2.02B30,2015-04-18 05:05:00,